Location: *
(46.1200°N, 11.2700°E)
Time: 12:06:54
(UTC+00:00)

CZ-2C R/B - Pass Details

Date: 02 March 2021
Orbit: 703 x 908 km, 98.1° (Epoch: 17 April)

Event Time Altitude Azimuth Distance (km) Brightness Sun altitude
Rises 17:45:12 0° 177° (S) 3,514 6.4 -8.1°
Reaches altitude 10° 17:47:41 10° 181° (S) 2,566 5.8 -8.6°
Maximum altitude 17:53:20 57° 260° (W) 1,027 4.1 -9.5°
Drops below altitude 10° 17:58:48 10° 339° (NNW) 2,485 5.9 -10.5°
Sets 18:01:11 0° 343° (NNW) 3,395 6.6 -10.9°
